Location: Newark
(23.3970°S, 47.6010°W)
Time: 12:59:18
(UTC+00:00)

Courier 1B Rocket - All Passes

Search period start: 28 February 2020 00:00
Search period end: 09 March 2020 00:00
Orbit: 920 x 1202 km, 28.2° (Epoch: 27 February)

Date Brightness Start Highest point End Pass type
(mag) Time Alt. Az. Time Alt. Az. Time Alt. Az.
28 Feb - 10:07:46 10° NNW 10:14:11 34° NNE 10:20:57 10° E daylight
28 Feb - 12:00:08 10° WNW 12:07:43 83° NNE 12:15:38 10° ESE daylight
28 Feb - 13:54:10 10° W 14:01:55 64° S 14:09:43 10° ESE daylight
28 Feb - 15:48:31 10° WSW 15:56:23 67° S 16:04:01 10° E daylight
28 Feb - 17:42:39 10° WSW 17:50:27 73° NNW 17:57:47 10° ENE daylight
28 Feb - 19:37:43 10° W 19:43:48 27° NNW 19:49:34 10° NNE daylight
29 Feb - 09:07:47 10° NNW 09:13:08 23° NNE 09:18:44 10° E daylight
29 Feb - 10:59:08 10° WNW 11:06:25 65° NNE 11:14:09 10° ESE daylight
29 Feb - 12:52:45 10° W 13:00:24 70° S 13:08:17 10° ESE daylight
29 Feb - 14:47:04 10° WSW 14:54:51 62° S 15:02:35 10° E daylight
29 Feb - 16:41:12 10° WSW 16:49:07 90° NNW 16:56:44 10° ENE daylight
29 Feb - 18:35:41 10° W 18:42:44 39° NNW 18:49:25 10° NE daylight
29 Feb - 20:34:47 10° NW 20:35:51 10° NW 20:36:56 10° NNW daylight
01 Mar - 08:08:43 10° N 08:12:09 14° NE 08:15:41 10° ENE visible
01 Mar - 09:58:26 10° NW 10:05:15 48° NNE 10:12:31 10° E daylight
01 Mar - 11:51:27 10° WNW 11:58:58 81° SSW 12:06:51 10° ESE daylight
01 Mar - 13:45:38 10° W 13:53:18 61° S 14:01:06 10° E daylight
01 Mar - 15:39:47 10° WSW 15:47:42 77° SSE 15:55:27 10° E daylight
01 Mar - 17:33:59 10° W 17:41:34 54° NNW 17:48:49 10° NE daylight
01 Mar - 19:30:03 10° WNW 19:34:50 18° NNW 19:39:27 10° N daylight
02 Mar - 08:58:04 10° NNW 09:04:11 33° NNE 09:10:42 10° E daylight
02 Mar - 10:50:20 10° WNW 10:57:37 84° NNE 11:05:24 10° ESE daylight
02 Mar - 12:44:14 10° W 12:51:46 63° S 12:59:35 10° ESE daylight
02 Mar - 14:38:25 10° WSW 14:46:13 67° S 14:54:02 10° E daylight
02 Mar - 16:32:27 10° WSW 16:40:19 72° NNW 16:47:56 10° ENE daylight
02 Mar - 18:27:28 10° W 18:33:46 27° NNW 18:39:49 10° NNE daylight
03 Mar - 07:58:10 10° NNW 08:03:12 22° NNE 08:08:30 10° E visible
03 Mar - 09:49:25 10° WNW 09:56:23 65° NNE 10:03:54 10° ESE daylight
03 Mar - 11:42:55 10° W 11:50:17 69° S 11:58:05 10° ESE daylight
03 Mar - 13:37:04 10° WSW 13:44:41 62° S 13:52:30 10° E daylight
03 Mar - 15:31:03 10° WSW 15:38:57 89° NNW 15:46:47 10° ENE daylight
03 Mar - 17:25:28 10° W 17:32:39 39° NNW 17:39:34 10° NE daylight
03 Mar - 19:24:07 10° NW 19:25:53 11° NW 19:27:38 10° NNW daylight
04 Mar - 06:59:13 10° N 07:02:17 13° NE 07:05:26 10° ENE visible
04 Mar - 08:48:47 10° NW 08:55:17 47° NNE 09:02:17 10° E daylight
04 Mar - 10:41:43 10° WNW 10:48:54 80° SSW 10:56:37 10° ESE daylight
04 Mar - 12:35:45 10° W 12:43:10 60° S 12:50:56 10° E daylight
04 Mar - 14:29:44 10° WSW 14:37:32 77° SSE 14:45:25 10° E daylight
04 Mar - 16:23:48 10° W 16:31:26 54° NNW 16:38:54 10° NE daylight
04 Mar - 18:19:48 10° WNW 18:24:47 18° NNW 18:29:40 10° N daylight
05 Mar - 07:48:28 10° NNW 07:54:17 33° NNE 08:00:30 10° E visible
05 Mar - 09:40:40 10° WNW 09:47:37 84° NNE 09:55:09 10° ESE daylight
05 Mar - 11:34:27 10° W 11:41:41 62° S 11:49:22 10° ESE daylight
05 Mar - 13:28:28 10° WSW 13:36:03 68° S 13:43:54 10° E daylight
05 Mar - 15:22:21 10° WSW 15:30:08 71° NNW 15:37:56 10° ENE daylight
05 Mar - 17:17:17 10° W 17:23:40 27° NNW 17:29:55 10° NNE daylight
06 Mar - 06:48:37 10° NNW 06:53:22 21° NNE 06:58:21 10° E visible
06 Mar - 08:39:49 10° WNW 08:46:28 65° NNE 08:53:40 10° ESE visible
06 Mar - 10:33:14 10° W 10:40:16 68° S 10:47:50 10° ESE daylight
06 Mar - 12:27:14 10° WSW 12:34:35 62° S 12:42:18 10° E daylight
06 Mar - 14:21:02 10° WSW 14:28:47 88° NNW 14:36:42 10° ENE daylight
06 Mar - 16:15:20 10° W 16:22:30 39° NNW 16:29:35 10° NE daylight
06 Mar - 18:13:47 10° NW 18:15:50 11° NW 18:17:53 10° NNW daylight
07 Mar - 05:49:42 10° N 05:52:29 13° NE 05:55:19 10° ENE visible
07 Mar - 07:39:13 10° NW 07:45:26 47° NNE 07:52:07 10° E visible
07 Mar - 09:32:06 10° W 09:38:56 78° SSW 09:46:22 10° ESE daylight
07 Mar - 11:26:00 10° W 11:33:06 60° S 11:40:41 10° E daylight
07 Mar - 13:19:49 10° WSW 13:27:23 78° SSE 13:35:15 10° E daylight
07 Mar - 15:13:45 10° W 15:21:15 53° NNW 15:28:51 10° NE daylight
07 Mar - 17:09:40 10° WNW 17:14:42 18° NNW 17:19:41 10° N daylight
08 Mar - 06:38:54 10° NNW 06:44:30 32° NNE 06:50:24 10° E visible
08 Mar - 08:31:07 10° WNW 08:37:44 85° NNE 08:44:56 10° ESE visible
08 Mar - 10:24:48 10° W 10:31:41 61° S 10:39:06 10° ESE daylight
08 Mar - 12:18:39 10° WSW 12:25:57 67° S 12:33:42 10° E daylight
08 Mar - 14:12:23 10° WSW 14:19:58 70° NNW 14:27:47 10° ENE daylight
08 Mar - 16:07:12 10° W 16:13:32 27° NNW 16:19:51 10° NNE daylight
